Temp
9 9 9 9 8 8 8 8 8 7 7 7 7 7 7 7 7 7 7 7 6 6 6 6 6 6 6 6 6 6 6 6 6 5 5 5 5 5 6 6 6 6 6 5 5 5 4 4 4 4 3 3 2 2 2 2 2 2 2 3 4 5 4 4 3 3 3 3 3 3 2 2 2 2 2 3 4 4 4 4 4 4 5 5 6 6 6 6
9 9 9 9 8 8 8 8 7 7 7 7 7 7 7 7 7 7 7 6 6 6 6 6 6 6 6 6 6 6 6 6 6 5 5 5 5 5 5 6 6 6 6 5 5 4 4 4 4 4 3 2 2 2 2 2 2 2 3 3 4 4 3 3 2 3 2 2 2 2 2 2 2 2 2 3 3 3 4 4 4 4 5 5 6 6 6 6
9 9 8 8 8 8 8 8 7 7 7 7 7 7 7 7 7 7 7 6 6 6 6 6 6 6 6 6 6 6 6 6 6 6 5 5 5 5 5 6 6 6 5 5 5 4 4 4 4 3 2 2 2 2 2 2 2 2 2 3 4 3 2 2 2 2 2 2 2 2 2 2 2 2 2 3 3 3 4 4 4 4 5 5 5 6 6 6
9 9 8 8 8 8 8 8 8 7 7 7 7 7 7 7 7 7 7 6 6 6 6 6 6 6 6 6 6 6 6 6 6 6 5 5 5 5 5 5 5 5 5 5 4 4 4 4 4 3 2 2 2 2 2 2 2 2 2 3 3 2 2 2 2 2 2 2 2 1 2 2 2 2 3 3 3 3 3 4 4 5 5 5 5 6 6 6
8 8 8 8 8 8 8 8 8 7 7 7 7 7 7 7 7 7 7 7 6 7 6 6 6 6 6 6 6 6 6 6 6 6 6 5 5 5 5 5 5 5 5 5 4 4 4 3 3 2 2 2 2 2 3 2 2 2 2 3 2 2 2 2 2 2 2 1 1 1 1 2 2 2 2 3 3 3 3 4 4 5 5 5 5 6 6 6
8 8 8 8 8 8 8 8 8 7 7 7 7 7 7 7 7 7 7 7 7 7 6 6 6 6 6 6 6 6 6 7 6 6 6 5 5 5 5 5 5 5 5 5 4 4 3 3 2 2 2 2 2 2 3 2 1 2 2 2 2 2 2 2 2 2 1 1 1 1 1 2 2 2 2 2 3 3 3 4 4 5 5 5 6 6 6 6
8 8 8 8 8 8 8 8 8 7 7 7 7 7 7 7 7 7 7 7 7 7 6 6 7 7 7 6 6 6 6 6 6 6 6 6 5 5 5 5 5 5 5 4 4 3 3 2 2 2 2 3 3 2 2 2 1 1 2 2 2 2 2 2 2 2 1 1 1 1 2 2 2 2 3 3 3 3 4 4 4 5 5 6 6 6 6 7
8 8 8 8 8 8 8 8 8 8 7 7 7 7 7 7 7 7 7 7 7 7 7 7 7 7 7 7 7 6 6 6 6 6 6 6 5 5 5 5 5 4 4 4 3 3 2 2 2 2 2 3 2 2 2 2 2 2 2 2 2 2 2 2 2 2 1 1 1 2 2 2 1 2 3 3 2 3 3 4 4 4 5 6 6 6 7 7
8 8 8 8 8 8 8 8 8 7 7 7 7 7 7 7 7 7 7 7 7 7 7 7 7 7 7 7 7 6 6 6 6 6 6 6 5 5 5 5 4 4 4 4 3 3 2 2 2 2 3 2 2 2 2 2 2 2 2 2 2 2 2 2 2 2 1 1 1 2 2 2 2 2 2 2 2 3 3 3 4 4 5 6 6 6 7 7
8 8 8 8 8 8 8 8 8 7 7 7 7 7 7 7 7 7 7 7 7 7 7 7 7 7 7 7 7 6 6 7 6 6 6 6 5 5 5 5 4 4 4 4 3 3 2 2 2 2 2 2 2 2 2 2 2 2 2 2 2 1 2 2 2 2 2 2 2 2 2 2 2 2 2 2 3 3 3 3 4 4 4 5 6 6 7 7
8 8 8 8 8 8 8 8 8 7 7 7 7 8 7 7 7 7 7 7 7 7 7 7 7 7 7 7 7 7 7 7 7 6 6 6 6 5 5 5 4 4 4 4 3 3 3 3 3 2 2 2 2 2 2 2 2 2 2 2 2 2 3 3 3 3 3 3 3 2 3 2 2 2 2 3 3 3 3 4 4 4 4 5 6 6 6 7
8 8 8 8 8 8 8 8 8 8 7 7 8 8 8 8 8 8 7 7 7 7 7 7 7 7 7 7 7 7 7 7 7 6 6 6 6 6 5 5 4 4 4 3 3 3 3 3 3 3 3 3 3 2 2 3 3 3 3 3 2 2 3 3 3 3 3 3 3 2 2 2 2 2 2 3 3 3 4 4 4 4 4 5 5 6 6 6
8 8 8 8 8 8 8 8 8 8 8 7 8 8 8 8 8 8 7 7 7 7 7 7 8 7 7 7 7 7 7 7 7 7 6 6 6 6 5 5 5 4 4 3 3 3 3 3 3 3 3 3 2 3 3 3 3 3 3 3 3 3 3 3 3 3 3 3 2 2 2 2 2 2 2 3 4 4 4 4 4 4 5 5 5 6 6 6
8 8 8 8 8 8 8 8 8 8 8 7 8 8 8 8 8 8 8 8 8 7 7 8 8 8 7 7 7 7 7 7 7 7 6 6 6 6 5 5 5 4 4 3 3 3 3 3 3 3 3 3 3 3 4 3 3 3 3 3 3 4 3 3 3 3 2 2 2 2 2 2 2 2 3 3 4 4 4 4 4 4 5 5 5 6 6 7
8 8 8 8 8 8 8 8 8 8 8 8 8 8 8 8 8 8 8 8 8 8 8 8 8 8 8 8 7 7 7 7 7 7 7 6 6 6 6 5 5 5 4 4 4 3 3 3 3 3 3 4 4 3 4 4 4 3 4 5 5 5 4 3 3 3 2 2 2 2 2 3 3 2 3 4 4 4 4 4 4 4 4 5 5 6 6 6
8 8 8 8 8 8 8 8 8 8 8 8 8 8 8 8 8 8 8 8 8 8 8 8 8 8 8 8 7 7 7 7 7 7 7 7 6 6 6 5 5 5 4 4 4 4 4 3 3 3 3 4 4 3 4 5 5 5 5 5 5 5 4 3 3 3 2 2 2 2 3 3 3 3 3 3 4 4 4 4 4 4 4 5 5 5 6 6
8 8 8 8 8 8 8 8 8 8 8 8 8 8 8 8 8 8 8 8 8 8 8 8 8 8 8 8 8 8 7 7 7 7 7 7 6 6 6 5 5 5 4 4 4 4 4 4 4 4 4 4 4 4 5 6 6 6 5 6 5 5 5 4 4 3 2 2 3 3 3 3 3 3 3 3 3 4 4 4 3 3 4 4 5 5 5 5
8 8 8 8 8 8 8 8 8 8 8 8 8 8 8 8 8 8 8 8 8 8 8 8 8 8 8 8 8 8 7 7 7 7 7 7 6 6 6 5 5 5 4 4 4 4 4 4 4 4 4 4 4 4 5 6 5 5 5 5 5 5 5 5 4 3 3 3 3 3 3 3 3 3 3 3 3 3 4 3 3 3 4 4 5 5 5 5
8 8 8 8 8 8 8 8 8 8 8 8 8 8 8 8 8 8 8 8 8 8 8 8 8 8 8 8 8 8 7 7 7 7 7 7 6 6 6 6 5 5 4 4 4 4 4 4 4 4 5 4 4 4 5 4 4 4 4 4 5 5 5 4 3 3 3 3 3 3 3 3 3 3 3 3 3 3 4 3 3 3 4 4 5 5 5 5
8 8 8 8 8 8 8 8 8 8 8 8 8 8 8 8 8 8 8 8 8 8 8 8 8 8 8 8 8 8 8 7 7 7 7 7 7 6 6 6 5 5 5 4 4 4 4 4 4 5 5 4 4 4 4 4 4 3 3 4 4 5 5 4 3 3 4 4 4 3 3 3 3 3 3 3 3 4 4 4 3 3 3 4 4 5 5 5
8 8 8 8 8 8 8 8 8 8 8 8 8 8 8 8 8 8 8 8 8 8 8 8 8 8 8 8 8 8 8 8 7 7 7 7 7 6 6 6 6 5 5 5 4 4 4 4 5 4 4 4 4 4 4 4 4 3 4 4 5 5 5 4 4 4 4 4 4 3 4 3 3 3 3 3 3 4 4 4 4 3 3 3 4 4 4 5
7 8 8 8 8 8 8 8 8 8 8 8 8 8 8 8 8 8 8 8 8 8 8 8 8 8 8 8 8 8 8 8 8 7 7 7 7 6 6 6 5 5 5 5 5 4 5 5 4 4 4 4 4 4 4 4 3 3 4 5 5 5 5 4 4 4 4 4 3 4 4 4 3 3 3 3 4 4 4 4 4 3 4 4 4 4 4 4
7 8 8 8 8 8 8 8 8 8 8 8 8 8 8 8 8 8 8 8 8 8 8 8 8 8 8 8 8 8 8 8 8 7 7 7 7 7 6 6 5 5 5 5 4 5 6 5 4 4 4 4 4 4 4 4 4 4 4 5 6 5 5 5 5 4 4 4 4 4 4 4 3 3 3 3 4 4 4 4 4 3 4 4 4 4 4 3
7 7 8 8 8 8 8 8 8 8 8 8 8 8 8 8 8 8 8 8 8 8 8 8 8 8 8 8 8 8 8 8 7 7 7 7 7 7 7 6 5 5 5 5 5 5 5 5 4 4 4 4 4 3 4 4 4 4 4 5 5 5 5 5 5 4 4 4 4 4 4 4 4 4 4 3 3 4 4 4 4 4 3 3 3 3 3 3
7 7 7 8 8 8 8 8 8 8 8 8 8 8 8 8 8 8 8 8 8 8 8 8 8 8 8 8 8 8 8 8 8 7 7 7 7 7 7 6 6 5 6 6 5 5 5 4 4 4 4 5 4 4 4 4 4 4 5 4 4 4 4 4 4 5 5 6 5 4 5 5 5 4 4 3 3 4 4 4 3 4 3 3 3 3 4 4
7 7 7 8 8 8 8 8 8 8 8 8 8 8 8 8 8 8 8 8 8 8 8 8 8 8 8 8 8 8 8 8 8 7 7 7 7 7 7 6 6 6 6 6 5 5 5 5 4 4 4 4 4 4 4 4 4 5 5 4 4 4 4 4 4 5 6 6 5 5 5 5 5 4 4 4 3 3 4 4 3 4 3 3 3 3 3 4
7 7 7 8 8 8 8 8 8 8 8 8 8 8 8 8 8 8 8 9 9 8 8 8 8 8 8 8 8 7 7 7 7 8 7 7 7 7 7 6 6 6 6 6 5 5 5 5 4 4 4 4 4 4 4 4 4 4 4 4 4 4 4 4 4 5 6 5 5 5 5 6 6 4 4 4 4 4 4 4 4 4 3 3 3 2 3 3
7 7 7 7 8 8 8 8 7 7 7 8 8 8 8 7 8 8 8 9 9 8 7 8 8 8 8 8 8 7 7 7 7 7 7 7 7 7 7 6 6 6 6 6 6 6 6 5 5 5 4 4 4 4 4 4 4 4 4 4 4 4 4 4 4 5 5 4 6 6 5 6 6 5 4 4 4 4 4 4 4 4 4 3 2 2 2 3
7 7 7 7 8 8 8 8 7 7 7 7 8 8 7 7 7 7 8 8 8 8 7 8 8 8 7 7 7 7 7 7 7 7 7 7 7 7 7 7 7 7 7 6 6 6 6 5 5 5 5 4 5 5 4 4 4 4 4 4 5 5 4 4 5 6 5 5 6 6 6 6 5 5 5 4 4 4 4 4 4 4 4 3 2 2 2 2
7 7 7 7 7 7 7 7 7 7 7 7 7 7 7 7 7 8 8 8 8 8 8 8 7 7 7 7 7 7 7 7 7 7 7 7 7 7 7 7 7 7 7 7 7 6 6 6 6 6 5 5 5 5 4 4 4 5 5 4 5 5 4 5 5 6 6 7 6 6 5 6 6 5 4 4 4 4 4 4 4 4 4 3 3 2 2 2
7 7 7 7 7 7 7 7 7 7 7 7 7 7 7 7 7 8 8 8 8 8 8 8 7 7 7 7 8 7 7 7 7 7 7 7 7 7 7 7 7 7 7 7 7 7 6 6 6 6 6 5 5 5 5 4 4 5 5 4 5 5 5 6 6 6 7 7 6 5 5 6 6 4 4 4 4 4 4 4 4 4 4 3 3 3 3 3
7 7 7 7 7 7 7 7 7 7 7 7 7 7 7 7 7 8 8 8 8 8 8 8 7 7 7 7 7 7 7 7 7 7 7 7 7 7 7 7 6 7 7 8 8 8 7 6 6 6 6 5 5 4 4 4 4 4 4 4 5 5 6 7 8 8 7 7 6 5 6 6 5 4 4 4 4 4 4 4 4 4 4 4 3 3 4 4
7 7 7 7 7 7 7 7 7 7 7 7 7 7 7 7 8 8 8 8 8 8 7 7 7 7 7 7 7 7 7 7 7 7 7 7 7 7 7 6 7 7 7 7 8 8 8 7 7 6 6 6 5 5 5 4 5 5 5 5 5 5 6 7 7 8 8 7 5 5 6 5 4 4 4 4 4 4 5 4 4 4 4 4 4 4 4 4
6 7 7 7 7 7 7 7 7 7 7 7 7 7 6 7 8 8 8 8 8 7 7 7 7 7 7 7 7 7 7 7 7 7 7 7 7 8 7 7 7 7 7 7 8 8 8 8 7 6 6 6 5 5 5 5 5 5 5 6 6 5 5 6 7 8 8 8 6 5 6 5 4 4 4 4 4 5 5 5 5 4 4 4 4 4 4 4
6 6 7 7 7 7 7 6 6 6 6 6 6 6 7 8 8 8 8 8 7 7 7 7 7 8 8 7 7 7 7 7 7 7 7 7 7 7 7 7 6 6 7 8 8 7 8 8 7 7 7 6 5 6 6 5 5 5 5 5 6 5 5 6 7 7 8 8 6 5 5 4 4 4 4 4 4 5 5 5 5 5 5 5 5 5 5 5
6 6 6 7 7 7 6 6 6 6 6 6 6 6 7 8 8 7 7 7 7 7 7 7 7 8 9 8 7 7 7 7 7 7 7 7 7 7 6 6 6 6 6 7 7 7 8 7 7 7 7 6 6 6 6 5 5 5 5 5 5 5 5 6 6 6 7 7 6 4 5 4 4 4 4 4 4 4 4 5 5 5 5 5 5 5 5 5
6 6 6 6 7 7 6 6 6 6 6 6 6 6 7 7 7 7 7 7 7 7 7 8 8 8 8 8 8 7 7 7 7 7 7 7 7 6 6 6 6 6 6 7 7 7 7 7 7 7 7 7 7 6 6 6 6 5 5 6 6 6 6 6 7 8 7 7 6 5 6 5 5 5 4 4 4 4 4 4 4 4 4 5 4 4 5 5
6 6 6 6 6 6 6 6 6 6 6 6 6 6 7 6 6 7 7 7 7 7 7 8 8 7 7 8 8 7 7 7 7 7 7 7 7 6 6 6 6 6 6 7 7 7 7 7 8 7 7 7 7 7 6 6 6 5 6 6 6 6 6 6 7 7 7 7 6 6 6 5 5 5 4 4 4 4 4 4 4 4 5 5 5 5 5 5
6 6 6 6 6 6 6 6 6 6 6 6 6 6 6 6 6 7 7 7 7 7 7 7 7 7 7 7 7 7 6 7 7 7 7 7 7 6 6 6 6 6 6 6 7 7 6 7 8 8 7 7 7 7 7 7 7 6 6 6 6 7 6 6 6 6 7 7 7 6 7 6 4 4 4 4 4 4 5 5 4 5 5 5 5 5 5 5
6 6 6 6 6 6 6 6 6 5 5 6 6 6 6 6 6 6 7 7 7 7 7 7 7 7 7 6 7 6 6 6 6 6 7 6 6 6 6 6 6 6 6 6 6 7 6 7 8 8 8 7 7 7 7 7 7 6 5 6 6 6 6 6 6 6 7 8 8 7 7 6 4 4 4 4 4 4 5 5 5 5 5 5 5 5 5 5
5 6 6 6 6 6 6 6 5 5 5 5 6 6 6 6 6 6 7 7 7 7 7 6 6 7 6 6 6 6 6 6 6 6 6 6 6 6 6 6 6 6 6 7 6 6 7 7 8 8 9 9 8 7 7 7 6 6 6 6 6 6 6 5 6 7 7 8 8 8 7 5 4 4 4 4 4 4 4 5 5 5 5 5 5 5 5 5
5 5 5 6 6 6 6 5 5 5 5 5 6 6 6 5 6 6 6 7 7 7 7 7 6 6 6 6 6 6 6 6 6 6 6 6 6 6 6 6 6 6 6 6 6 6 7 7 8 9 9 9 8 7 7 7 6 6 6 6 6 7 7 7 8 8 8 8 8 8 7 5 4 4 4 4 4 4 4 4 4 4 5 5 5 5 5 5
5 5 5 6 6 6 6 5 5 5 5 5 5 5 5 5 5 6 6 6 6 6 6 6 6 6 6 6 6 6 6 6 6 6 6 5 5 5 6 6 6 6 6 6 6 6 6 7 7 9 9 9 8 7 7 7 6 7 6 6 6 7 7 7 8 8 8 8 8 8 7 5 4 4 4 4 4 4 4 4 4 4 4 4 5 5 5 5
5 5 5 5 5 6 5 5 5 5 5 5 5 5 5 5 5 5 5 6 6 6 6 6 6 6 6 6 6 5 6 6 5 6 6 5 5 5 5 6 5 5 6 6 6 6 7 7 7 9 10 9 8 7 7 7 6 6 6 6 6 6 6 7 7 8 9 8 7 8 7 4 4 4 4 4 4 4 4 4 4 4 4 4 4 5 5 5
5 5 5 5 5 6 5 5 5 5 4 5 5 5 5 5 5 5 5 5 6 6 5 5 6 6 6 6 6 5 6 6 5 5 6 5 5 5 5 5 5 5 5 6 6 6 6 6 7 8 9 9 8 8 7 7 6 7 7 6 6 6 6 7 8 9 9 8 8 8 6 4 4 4 4 4 4 4 4 4 4 4 4 4 4 4 4 4
5 5 5 5 5 5 5 5 5 4 4 4 5 4 5 5 5 5 5 5 5 6 5 5 6 6 5 5 5 5 5 5 5 5 5 5 5 5 5 5 5 5 5 6 6 6 6 6 6 7 7 8 7 7 6 6 6 6 6 6 6 6 6 7 8 9 8 8 8 7 5 4 4 4 4 4 4 4 4 4 4 4 4 4 4 4 4 4
5 5 5 5 5 5 5 5 5 4 4 4 4 4 4 5 5 5 5 5 5 5 5 5 5 5 5 5 5 5 5 4 5 5 5 5 5 5 5 5 5 5 5 5 6 6 6 7 6 6 6 6 6 6 6 6 6 6 6 6 6 6 6 6 7 7 7 7 7 6 5 5 4 4 4 4 4 5 4 4 4 4 4 4 4 4 4 4
4 5 5 5 5 5 5 5 5 4 4 4 4 4 4 4 5 5 5 5 5 5 5 5 5 5 5 5 4 4 4 4 4 4 4 5 5 5 5 5 5 5 5 5 5 6 6 7 6 6 6 6 6 6 6 6 6 6 6 6 6 6 6 6 6 6 6 7 7 5 5 5 4 4 5 5 5 5 5 4 4 4 4 4 4 4 4 4
4 4 5 5 5 5 5 5 5 4 4 4 4 4 4 4 4 4 4 4 4 4 5 4 4 4 5 5 4 4 4 4 4 4 4 5 5 5 5 5 5 5 5 5 5 5 6 6 6 6 6 6 6 6 6 6 6 6 6 6 6 6 6 6 6 6 6 6 6 5 5 5 4 4 4 5 5 5 5 4 4 4 4 4 4 4 4 4
4 4 4 5 5 5 5 5 5 4 4 4 4 4 4 4 4 4 4 4 4 4 4 4 4 4 4 4 4 4 4 4 4 4 4 4 5 5 5 5 5 5 5 5 5 5 6 6 6 6 7 7 6 6 6 6 6 6 6 6 6 6 6 6 5 6 6 6 5 5 5 5 4 4 4 5 5 5 5 4 4 4 4 4 4 4 4 4
4 4 4 4 4 5 5 5 5 4 4 4 4 4 4 4 4 4 4 4 4 4 4 4 4 4 4 4 4 3 3 4 4 4 4 4 4 4 4 5 5 5 5 5 5 5 5 6 6 6 7 7 6 6 6 6 6 6 5 5 5 5 5 5 5 6 6 5 5 5 5 5 4 4 4 4 4 4 5 4 4 4 4 4 4 4 4 4
4 4 4 4 4 4 4 4 4 4 4 4 4 4 4 4 4 4 4 4 4 4 4 4 4 4 4 4 4 3 3 4 4 4 4 4 4 4 4 4 4 5 5 5 5 5 5 6 6 6 7 7 7 6 6 6 7 6 5 5 5 5 5 5 5 6 6 5 5 5 5 5 4 4 4 4 4 4 4 4 4 4 4 4 4 4 4 4
Height
3142 3141 3140 3140 3139 3138 3138 3137 3137 3136 3136 3136 3137 3137 3138 3138 3137 3137 3136 3136 3135 3135 3134 3133 3133 3132 3131 3131 3130 3129 3128 3127 3126 3125 3123 3122 3120 3118 3116 3114 3112 3110 3109 3107 3105 3104 3103 3102 3101 3101 3100 3100 3100 3100 3098 3098 3098 3098 3100 3100 3098 3097 3097 3096 3096 3096 3095 3094 3094 3094 3093 3093 3093 3093 3092 3092 3093 3094 3094 3095 3096 3098 3098 3098 3099 3098 3099 3100
3141 3140 3140 3139 3138 3138 3137 3136 3136 3136 3136 3136 3136 3137 3137 3137 3137 3137 3136 3135 3135 3134 3134 3133 3133 3132 3131 3130 3130 3129 3128 3127 3126 3124 3123 3121 3120 3118 3116 3113 3112 3110 3108 3106 3105 3104 3103 3102 3102 3101 3101 3101 3101 3100 3099 3098 3097 3099 3100 3099 3097 3096 3096 3096 3095 3095 3094 3094 3093 3093 3093 3092 3091 3090 3090 3090 3092 3092 3092 3094 3095 3096 3095 3096 3097 3097 3098 3100
3140 3140 3139 3138 3138 3137 3136 3136 3135 3135 3135 3135 3136 3136 3136 3137 3136 3136 3135 3135 3134 3134 3133 3133 3132 3132 3131 3130 3130 3129 3128 3127 3125 3124 3123 3121 3119 3118 3116 3113 3111 3110 3108 3106 3105 3104 3103 3103 3102 3101 3101 3103 3101 3099 3099 3098 3098 3099 3099 3098 3097 3095 3095 3094 3094 3094 3093 3092 3091 3091 3090 3089 3088 3088 3089 3089 3089 3091 3091 3092 3092 3093 3093 3094 3095 3096 3098 3100
3140 3139 3139 3138 3137 3136 3136 3135 3134 3134 3134 3135 3135 3136 3136 3136 3136 3136 3135 3134 3134 3133 3133 3133 3132 3131 3131 3130 3129 3128 3127 3126 3125 3124 3122 3121 3119 3117 3115 3113 3111 3109 3107 3106 3105 3104 3103 3103 3102 3101 3102 3103 3101 3099 3100 3099 3098 3098 3097 3097 3096 3095 3094 3093 3093 3093 3092 3091 3089 3089 3088 3087 3086 3087 3088 3087 3087 3090 3089 3088 3089 3091 3091 3092 3093 3094 3097 3100
3139 3139 3138 3137 3136 3136 3135 3134 3134 3133 3133 3134 3134 3135 3135 3135 3135 3135 3134 3134 3133 3133 3132 3132 3132 3131 3130 3130 3129 3128 3127 3126 3125 3124 3122 3121 3119 3117 3115 3113 3111 3109 3107 3106 3105 3104 3104 3102 3101 3101 3102 3104 3102 3101 3101 3099 3097 3097 3097 3096 3095 3094 3093 3092 3092 3091 3090 3089 3089 3088 3087 3086 3085 3085 3085 3085 3085 3087 3086 3086 3088 3089 3090 3091 3092 3094 3097 3100
3139 3138 3137 3137 3136 3135 3134 3134 3133 3133 3132 3133 3133 3134 3134 3134 3134 3134 3134 3133 3133 3132 3132 3131 3131 3131 3130 3129 3129 3128 3127 3127 3126 3124 3122 3120 3118 3117 3115 3113 3111 3109 3108 3106 3105 3105 3104 3102 3102 3103 3103 3104 3102 3102 3101 3098 3097 3096 3096 3096 3095 3094 3093 3091 3091 3090 3089 3088 3088 3086 3085 3084 3084 3084 3083 3082 3082 3083 3083 3084 3086 3087 3088 3089 3091 3094 3097 3099
3138 3137 3137 3136 3135 3134 3134 3133 3132 3132 3131 3132 3132 3133 3133 3133 3134 3134 3133 3133 3132 3132 3131 3131 3131 3130 3130 3129 3129 3128 3127 3126 3125 3123 3122 3120 3118 3116 3114 3113 3111 3109 3108 3106 3106 3105 3104 3103 3104 3104 3104 3104 3102 3101 3099 3097 3096 3096 3096 3095 3093 3093 3091 3090 3090 3089 3088 3087 3086 3084 3083 3083 3082 3082 3081 3081 3080 3080 3081 3082 3084 3085 3086 3088 3091 3093 3096 3097
3138 3137 3136 3135 3135 3134 3133 3133 3132 3131 3131 3131 3131 3131 3132 3132 3133 3133 3132 3132 3132 3131 3131 3130 3130 3129 3129 3129 3128 3127 3127 3126 3124 3123 3121 3119 3118 3116 3114 3113 3111 3110 3108 3107 3106 3105 3104 3104 3104 3103 3104 3104 3101 3100 3099 3097 3096 3095 3095 3093 3091 3091 3089 3089 3088 3087 3086 3085 3084 3082 3081 3080 3080 3080 3079 3079 3079 3079 3080 3082 3083 3083 3084 3087 3090 3092 3094 3095
3137 3136 3136 3135 3134 3134 3133 3132 3131 3130 3130 3130 3130 3130 3130 3131 3131 3132 3131 3131 3131 3130 3130 3130 3129 3129 3129 3128 3128 3127 3126 3125 3124 3123 3121 3119 3118 3116 3114 3113 3111 3110 3108 3107 3106 3105 3105 3105 3103 3102 3102 3101 3099 3099 3098 3096 3096 3095 3093 3092 3090 3090 3088 3087 3086 3085 3084 3083 3082 3080 3079 3079 3079 3078 3078 3078 3078 3078 3079 3081 3082 3082 3084 3086 3088 3090 3092 3094
3137 3136 3135 3134 3134 3133 3132 3132 3131 3130 3129 3129 3129 3129 3129 3130 3130 3130 3131 3131 3130 3130 3130 3129 3129 3128 3128 3128 3128 3127 3126 3125 3124 3122 3121 3119 3118 3116 3114 3112 3111 3110 3109 3108 3106 3105 3105 3104 3102 3101 3100 3100 3098 3098 3097 3096 3096 3093 3092 3091 3090 3088 3087 3085 3084 3083 3082 3080 3079 3078 3078 3078 3078 3077 3077 3077 3076 3075 3077 3080 3081 3082 3083 3085 3087 3089 3091 3093
3136 3136 3135 3134 3133 3133 3132 3131 3130 3129 3128 3128 3128 3128 3128 3129 3129 3129 3130 3130 3129 3129 3129 3128 3128 3128 3127 3127 3127 3127 3126 3124 3123 3122 3120 3119 3117 3116 3114 3112 3111 3109 3108 3108 3106 3105 3104 3103 3102 3101 3100 3100 3098 3098 3097 3095 3094 3092 3091 3090 3090 3088 3087 3084 3082 3081 3080 3078 3077 3076 3076 3076 3076 3075 3075 3075 3075 3075 3077 3079 3080 3081 3082 3083 3085 3087 3089 3092
3136 3135 3135 3134 3133 3132 3131 3131 3130 3129 3128 3127 3127 3127 3127 3128 3128 3128 3129 3129 3129 3128 3128 3128 3127 3127 3127 3127 3126 3126 3125 3124 3123 3121 3120 3118 3117 3115 3114 3112 3111 3109 3108 3107 3106 3105 3103 3102 3101 3100 3101 3099 3098 3098 3096 3094 3093 3091 3090 3090 3090 3088 3086 3084 3081 3081 3079 3078 3077 3077 3076 3075 3075 3074 3074 3074 3075 3076 3077 3079 3080 3081 3081 3082 3084 3086 3088 3091
3136 3135 3134 3134 3133 3132 3131 3130 3129 3129 3128 3127 3127 3127 3127 3127 3127 3127 3128 3128 3128 3127 3127 3127 3127 3127 3126 3126 3126 3125 3125 3124 3122 3121 3120 3118 3116 3115 3113 3112 3111 3109 3108 3107 3106 3104 3103 3102 3101 3100 3099 3098 3098 3097 3095 3093 3092 3091 3091 3089 3088 3087 3085 3083 3081 3080 3078 3077 3077 3076 3075 3074 3074 3074 3073 3074 3075 3076 3077 3078 3079 3080 3080 3081 3083 3085 3087 3089
3136 3135 3134 3133 3132 3132 3131 3130 3129 3128 3128 3127 3126 3126 3126 3126 3126 3127 3127 3127 3127 3126 3126 3126 3126 3126 3126 3126 3125 3125 3124 3123 3122 3121 3119 3118 3116 3115 3113 3111 3110 3108 3107 3106 3105 3104 3102 3102 3100 3099 3098 3098 3097 3096 3094 3093 3092 3092 3090 3088 3087 3087 3085 3083 3081 3080 3078 3077 3076 3076 3075 3075 3074 3073 3073 3074 3075 3075 3076 3077 3078 3079 3079 3080 3081 3083 3085 3088
3135 3135 3134 3133 3132 3131 3131 3130 3129 3128 3127 3127 3126 3126 3125 3125 3126 3126 3126 3126 3126 3126 3125 3125 3126 3126 3126 3125 3125 3124 3124 3123 3122 3120 3119 3118 3116 3114 3113 3111 3110 3108 3106 3105 3104 3103 3102 3101 3100 3099 3099 3097 3096 3095 3095 3094 3093 3091 3089 3087 3087 3087 3085 3083 3081 3079 3077 3075 3074 3075 3075 3074 3074 3074 3073 3074 3074 3074 3076 3077 3078 3078 3078 3079 3081 3082 3084 3086
3135 3134 3134 3133 3132 3131 3130 3130 3129 3128 3127 3126 3126 3125 3125 3125 3125 3125 3125 3125 3125 3125 3125 3125 3125 3126 3125 3125 3125 3124 3123 3122 3121 3120 3119 3117 3116 3114 3113 3111 3109 3108 3106 3105 3103 3102 3102 3101 3100 3099 3098 3097 3097 3096 3095 3094 3092 3090 3089 3088 3087 3086 3084 3082 3080 3078 3076 3075 3075 3074 3074 3073 3073 3073 3073 3073 3073 3074 3075 3076 3077 3078 3078 3079 3081 3081 3083 3085
3135 3134 3134 3133 3132 3131 3130 3129 3129 3128 3127 3126 3125 3125 3124 3124 3125 3124 3125 3125 3124 3125 3124 3125 3125 3125 3125 3125 3125 3124 3123 3122 3121 3120 3118 3117 3116 3114 3112 3111 3109 3108 3106 3104 3103 3102 3101 3100 3099 3099 3098 3097 3097 3096 3094 3092 3091 3090 3089 3088 3087 3086 3085 3083 3081 3079 3077 3077 3075 3074 3074 3073 3072 3072 3072 3071 3072 3073 3074 3075 3076 3078 3078 3079 3080 3081 3083 3084
3135 3134 3133 3132 3132 3131 3130 3129 3128 3128 3127 3126 3125 3125 3124 3124 3124 3124 3124 3124 3124 3124 3125 3125 3125 3125 3125 3125 3124 3123 3123 3122 3121 3119 3118 3117 3116 3114 3113 3111 3109 3108 3106 3104 3103 3102 3101 3100 3099 3099 3099 3098 3097 3096 3095 3093 3092 3092 3090 3088 3087 3086 3085 3084 3082 3080 3078 3077 3076 3075 3074 3073 3072 3072 3071 3071 3071 3072 3074 3076 3077 3078 3079 3079 3081 3081 3083 3084
3134 3134 3133 3132 3131 3130 3129 3128 3128 3127 3127 3126 3125 3125 3124 3124 3124 3124 3124 3124 3124 3124 3125 3125 3125 3125 3125 3124 3124 3123 3122 3122 3120 3119 3118 3116 3115 3114 3112 3111 3110 3109 3107 3106 3104 3103 3102 3101 3100 3099 3099 3098 3097 3096 3095 3094 3093 3092 3090 3089 3088 3086 3085 3084 3082 3080 3078 3077 3076 3076 3074 3073 3072 3071 3072 3072 3072 3073 3076 3078 3078 3079 3079 3079 3081 3082 3082 3084
3134 3133 3133 3132 3131 3130 3129 3128 3127 3127 3126 3126 3125 3125 3124 3124 3124 3124 3124 3124 3124 3124 3124 3125 3125 3125 3125 3124 3124 3123 3122 3121 3120 3119 3117 3116 3115 3113 3112 3111 3110 3108 3107 3106 3105 3103 3101 3101 3100 3100 3098 3097 3096 3095 3094 3093 3093 3091 3090 3089 3088 3086 3085 3083 3082 3080 3078 3077 3077 3076 3075 3074 3073 3072 3073 3073 3073 3075 3077 3079 3080 3079 3079 3079 3080 3081 3083 3084
3133 3133 3132 3131 3130 3129 3128 3127 3127 3126 3126 3126 3125 3125 3124 3124 3124 3124 3124 3124 3124 3124 3124 3125 3125 3124 3124 3124 3123 3122 3121 3121 3120 3118 3117 3115 3114 3113 3112 3111 3109 3109 3108 3106 3104 3102 3101 3101 3101 3099 3097 3095 3094 3093 3093 3092 3092 3091 3090 3089 3087 3086 3085 3083 3082 3080 3078 3077 3077 3076 3076 3076 3074 3073 3073 3073 3074 3076 3078 3080 3080 3080 3079 3079 3080 3081 3082 3083
3133 3132 3132 3131 3130 3128 3127 3126 3126 3125 3125 3125 3125 3124 3124 3124 3124 3124 3124 3124 3124 3124 3124 3125 3124 3124 3124 3123 3123 3122 3121 3120 3119 3118 3117 3115 3114 3113 3112 3111 3109 3109 3108 3105 3103 3101 3100 3101 3100 3098 3097 3095 3094 3093 3092 3091 3091 3091 3090 3089 3086 3085 3085 3083 3081 3080 3078 3077 3078 3077 3077 3076 3075 3075 3074 3074 3075 3077 3078 3080 3080 3079 3078 3078 3080 3081 3081 3082
3131 3131 3131 3130 3129 3128 3127 3126 3125 3125 3125 3125 3125 3124 3124 3124 3124 3124 3124 3124 3125 3125 3124 3124 3124 3124 3123 3123 3122 3121 3121 3120 3119 3118 3117 3115 3115 3114 3112 3111 3110 3109 3108 3105 3104 3102 3101 3101 3100 3098 3097 3095 3094 3093 3092 3091 3090 3090 3090 3089 3087 3085 3085 3083 3082 3080 3079 3078 3078 3077 3076 3076 3075 3076 3076 3075 3075 3075 3077 3079 3079 3078 3078 3077 3079 3080 3080 3082
3130 3130 3130 3130 3129 3127 3126 3125 3125 3124 3124 3124 3124 3124 3124 3123 3123 3124 3124 3124 3124 3124 3124 3124 3124 3123 3123 3122 3121 3120 3120 3119 3119 3118 3116 3115 3114 3113 3112 3111 3110 3109 3108 3106 3104 3102 3101 3100 3099 3098 3096 3095 3095 3093 3092 3091 3090 3089 3089 3088 3087 3086 3085 3084 3082 3081 3080 3079 3078 3078 3077 3077 3077 3078 3078 3078 3076 3075 3077 3078 3077 3077 3077 3076 3078 3078 3079 3080
3129 3129 3129 3128 3128 3127 3125 3125 3124 3124 3124 3124 3124 3124 3123 3123 3123 3123 3123 3124 3124 3124 3124 3124 3123 3123 3122 3121 3120 3120 3119 3119 3118 3117 3116 3115 3114 3113 3112 3111 3110 3109 3108 3105 3103 3101 3099 3098 3097 3097 3096 3095 3094 3094 3092 3091 3089 3089 3089 3088 3087 3086 3085 3084 3083 3081 3080 3080 3079 3078 3078 3078 3079 3080 3080 3078 3077 3076 3077 3078 3078 3078 3078 3077 3078 3078 3079 3081
3129 3128 3128 3127 3127 3126 3125 3124 3124 3123 3123 3123 3123 3123 3123 3123 3123 3123 3123 3124 3124 3124 3124 3123 3123 3122 3121 3120 3120 3119 3119 3118 3117 3117 3116 3115 3114 3113 3112 3111 3109 3108 3107 3104 3102 3100 3098 3097 3096 3096 3095 3095 3094 3093 3092 3090 3089 3089 3089 3087 3087 3086 3085 3084 3083 3082 3081 3081 3080 3079 3078 3079 3081 3082 3081 3080 3079 3078 3078 3078 3079 3079 3079 3078 3077 3077 3079 3079
3128 3127 3127 3126 3126 3125 3125 3124 3123 3123 3122 3123 3122 3123 3123 3123 3123 3123 3123 3123 3123 3123 3124 3123 3122 3122 3121 3120 3119 3119 3119 3118 3117 3116 3115 3114 3114 3112 3112 3111 3109 3108 3106 3103 3102 3100 3098 3097 3096 3095 3094 3094 3094 3093 3092 3091 3090 3090 3088 3087 3086 3086 3086 3085 3084 3083 3082 3082 3081 3080 3080 3080 3081 3082 3082 3081 3081 3080 3078 3078 3080 3080 3081 3080 3079 3079 3079 3079
3127 3126 3126 3125 3125 3125 3124 3123 3122 3122 3122 3122 3122 3122 3122 3123 3123 3123 3123 3122 3122 3122 3123 3122 3121 3121 3120 3119 3119 3118 3118 3117 3116 3115 3115 3114 3113 3112 3111 3110 3109 3108 3105 3103 3102 3100 3099 3098 3096 3095 3094 3093 3094 3093 3092 3091 3090 3089 3087 3086 3086 3085 3085 3085 3085 3085 3084 3082 3081 3081 3081 3080 3082 3083 3083 3083 3082 3081 3080 3080 3081 3081 3083 3083 3083 3084 3085 3085
3125 3125 3125 3124 3124 3124 3123 3123 3122 3122 3121 3121 3121 3122 3122 3123 3122 3122 3123 3122 3121 3122 3122 3122 3121 3120 3120 3119 3118 3118 3117 3117 3116 3115 3114 3114 3113 3112 3111 3110 3108 3107 3105 3103 3102 3101 3099 3098 3096 3095 3094 3094 3093 3092 3091 3090 3090 3089 3087 3086 3085 3085 3085 3085 3085 3085 3084 3082 3081 3082 3081 3081 3083 3084 3084 3084 3084 3083 3082 3082 3083 3084 3085 3086 3087 3089 3090 3092
3124 3124 3124 3124 3123 3123 3122 3122 3121 3121 3121 3121 3121 3121 3122 3122 3122 3122 3123 3122 3121 3122 3122 3121 3121 3120 3120 3120 3119 3118 3117 3116 3115 3115 3114 3113 3112 3111 3110 3109 3108 3106 3105 3103 3102 3101 3100 3098 3095 3095 3094 3094 3092 3091 3091 3090 3089 3088 3086 3085 3085 3085 3085 3085 3085 3085 3083 3082 3082 3083 3082 3081 3082 3085 3085 3085 3086 3085 3084 3084 3085 3086 3087 3089 3090 3092 3095 3097
3123 3123 3123 3123 3122 3122 3121 3121 3121 3121 3121 3120 3121 3121 3122 3122 3122 3122 3121 3121 3121 3121 3121 3122 3121 3120 3120 3120 3119 3118 3117 3116 3115 3114 3114 3113 3112 3111 3110 3109 3108 3106 3105 3104 3102 3101 3099 3098 3096 3095 3094 3093 3092 3091 3091 3090 3088 3087 3085 3085 3085 3085 3085 3084 3084 3084 3082 3082 3084 3084 3083 3081 3082 3085 3086 3086 3088 3088 3087 3087 3087 3088 3090 3092 3093 3095 3097 3100
3122 3122 3122 3122 3122 3121 3120 3120 3120 3120 3120 3120 3120 3121 3121 3122 3122 3121 3120 3120 3121 3121 3121 3122 3121 3120 3120 3119 3118 3118 3117 3116 3115 3114 3114 3114 3113 3112 3111 3111 3110 3107 3105 3104 3103 3101 3100 3099 3098 3096 3094 3093 3093 3092 3091 3090 3087 3085 3085 3085 3085 3085 3085 3083 3082 3082 3082 3083 3085 3085 3083 3083 3085 3086 3087 3088 3089 3090 3090 3090 3090 3091 3092 3094 3096 3097 3099 3101
3121 3121 3121 3121 3121 3120 3120 3120 3120 3120 3119 3120 3120 3121 3122 3122 3121 3120 3120 3121 3120 3120 3121 3121 3120 3120 3119 3119 3118 3117 3116 3115 3115 3114 3114 3113 3114 3113 3111 3110 3110 3108 3106 3105 3103 3101 3100 3099 3097 3096 3095 3093 3092 3092 3092 3090 3088 3086 3085 3084 3084 3084 3084 3083 3082 3082 3082 3084 3087 3085 3083 3085 3087 3088 3089 3089 3090 3091 3092 3092 3093 3094 3095 3096 3097 3099 3100 3102
3119 3120 3120 3120 3120 3119 3119 3119 3119 3119 3119 3119 3120 3121 3122 3121 3119 3119 3120 3120 3120 3120 3120 3120 3120 3119 3119 3119 3118 3116 3116 3115 3114 3114 3114 3113 3114 3113 3112 3110 3109 3109 3108 3106 3104 3103 3101 3099 3097 3097 3096 3094 3092 3092 3091 3090 3088 3087 3086 3084 3083 3084 3084 3084 3082 3081 3082 3084 3087 3086 3085 3087 3089 3089 3090 3089 3090 3091 3093 3094 3095 3096 3097 3098 3100 3101 3103 3104
3118 3118 3119 3119 3119 3119 3118 3118 3118 3118 3119 3119 3120 3121 3121 3120 3119 3119 3120 3120 3119 3120 3120 3119 3119 3119 3119 3118 3117 3116 3115 3115 3114 3113 3114 3114 3114 3113 3113 3112 3110 3109 3108 3106 3105 3103 3102 3100 3098 3097 3096 3094 3093 3092 3091 3089 3088 3087 3086 3085 3084 3084 3085 3085 3084 3084 3083 3084 3088 3089 3088 3089 3090 3089 3089 3089 3090 3092 3093 3095 3096 3097 3099 3101 3102 3103 3104 3106
3117 3117 3117 3117 3118 3118 3118 3118 3118 3118 3118 3118 3119 3120 3120 3119 3118 3119 3119 3119 3119 3119 3120 3119 3119 3119 3119 3118 3117 3116 3115 3114 3114 3113 3113 3113 3113 3113 3113 3112 3110 3109 3108 3107 3106 3104 3103 3101 3099 3097 3096 3095 3094 3093 3092 3091 3090 3088 3087 3087 3086 3085 3085 3085 3085 3086 3084 3085 3089 3091 3090 3090 3091 3091 3090 3090 3091 3093 3094 3096 3097 3098 3100 3102 3103 3104 3105 3107
3116 3116 3116 3116 3117 3117 3117 3117 3117 3117 3117 3118 3119 3119 3118 3118 3117 3118 3118 3118 3119 3119 3119 3119 3118 3118 3118 3118 3117 3116 3115 3114 3114 3113 3113 3113 3113 3112 3112 3112 3110 3109 3108 3107 3106 3105 3104 3102 3099 3098 3097 3095 3094 3093 3092 3092 3091 3090 3089 3088 3087 3086 3086 3086 3084 3084 3084 3087 3091 3091 3090 3090 3091 3093 3093 3093 3094 3095 3096 3097 3097 3098 3100 3102 3104 3105 3106 3107
3115 3115 3115 3115 3116 3116 3116 3116 3116 3117 3117 3117 3117 3117 3117 3117 3116 3117 3117 3118 3118 3118 3119 3119 3118 3118 3118 3118 3117 3116 3115 3114 3114 3113 3113 3112 3112 3112 3112 3111 3110 3110 3108 3107 3107 3106 3104 3101 3099 3098 3098 3096 3094 3093 3092 3092 3091 3091 3090 3089 3088 3088 3088 3087 3086 3085 3086 3088 3092 3092 3091 3092 3093 3094 3095 3096 3096 3096 3097 3098 3098 3099 3100 3102 3104 3105 3106 3108
3113 3114 3114 3114 3114 3115 3115 3115 3115 3116 3116 3117 3117 3116 3115 3116 3115 3116 3117 3117 3117 3118 3118 3118 3118 3118 3118 3117 3117 3116 3115 3114 3114 3113 3112 3112 3112 3111 3111 3111 3110 3110 3108 3107 3107 3106 3104 3102 3099 3098 3098 3096 3095 3093 3092 3092 3091 3090 3090 3089 3089 3089 3089 3088 3087 3087 3086 3087 3089 3090 3091 3093 3095 3096 3096 3097 3097 3097 3098 3099 3099 3099 3101 3102 3103 3104 3106 3107
3112 3112 3113 3113 3113 3113 3114 3114 3114 3115 3115 3116 3116 3116 3115 3115 3115 3115 3116 3116 3117 3117 3117 3117 3117 3117 3117 3117 3116 3115 3115 3114 3114 3113 3112 3112 3112 3111 3111 3110 3110 3109 3108 3107 3107 3106 3105 3104 3101 3099 3098 3096 3096 3095 3094 3093 3092 3091 3091 3091 3090 3089 3089 3089 3089 3088 3087 3087 3087 3088 3091 3094 3096 3096 3096 3097 3098 3097 3098 3099 3099 3099 3100 3102 3103 3104 3105 3106
3110 3111 3111 3111 3112 3112 3112 3113 3113 3114 3115 3115 3115 3114 3114 3114 3114 3114 3115 3115 3116 3116 3116 3116 3116 3117 3117 3116 3116 3115 3114 3114 3113 3113 3113 3112 3112 3111 3110 3109 3109 3108 3108 3108 3108 3106 3105 3104 3102 3100 3097 3097 3097 3096 3095 3094 3093 3093 3092 3091 3091 3090 3089 3090 3090 3089 3089 3088 3087 3088 3092 3096 3097 3097 3097 3097 3097 3097 3098 3099 3099 3100 3101 3102 3103 3104 3105 3106
3109 3110 3110 3110 3111 3111 3111 3112 3112 3112 3114 3114 3113 3113 3113 3113 3113 3114 3114 3114 3115 3115 3115 3115 3115 3115 3115 3115 3115 3114 3114 3114 3113 3113 3113 3112 3112 3111 3110 3109 3109 3108 3108 3108 3108 3106 3105 3104 3102 3100 3098 3098 3097 3096 3095 3094 3093 3093 3092 3091 3091 3091 3090 3089 3089 3090 3090 3090 3090 3090 3093 3097 3098 3097 3098 3098 3098 3098 3099 3099 3100 3100 3101 3102 3103 3104 3105 3106
3107 3108 3109 3109 3110 3110 3110 3111 3111 3111 3112 3112 3112 3112 3112 3112 3113 3114 3114 3114 3114 3114 3115 3115 3115 3115 3115 3114 3114 3113 3113 3113 3113 3112 3112 3112 3111 3110 3109 3109 3108 3108 3108 3108 3108 3106 3105 3104 3102 3099 3097 3097 3097 3096 3095 3095 3094 3094 3093 3092 3091 3091 3091 3090 3090 3091 3090 3090 3090 3089 3092 3098 3099 3098 3099 3099 3099 3100 3100 3100 3101 3101 3102 3103 3104 3104 3105 3107
3106 3107 3107 3108 3108 3108 3109 3110 3110 3111 3111 3111 3111 3111 3111 3112 3112 3113 3113 3113 3113 3114 3114 3114 3114 3114 3114 3113 3113 3113 3112 3112 3112 3112 3111 3111 3111 3109 3108 3108 3108 3109 3108 3108 3107 3106 3105 3105 3103 3100 3097 3096 3096 3096 3096 3096 3095 3095 3095 3094 3092 3092 3092 3091 3091 3091 3090 3092 3091 3088 3092 3098 3099 3099 3100 3100 3100 3101 3101 3102 3102 3103 3103 3105 3106 3106 3106 3108
3104 3105 3106 3106 3107 3107 3107 3108 3109 3110 3110 3110 3110 3111 3111 3111 3111 3112 3112 3112 3112 3113 3113 3113 3113 3113 3113 3112 3112 3112 3112 3112 3112 3111 3111 3111 3110 3109 3108 3108 3108 3108 3108 3107 3107 3106 3106 3105 3104 3102 3100 3098 3097 3098 3098 3098 3097 3097 3097 3096 3094 3093 3093 3092 3091 3090 3090 3092 3091 3090 3094 3099 3099 3099 3101 3101 3101 3101 3101 3102 3104 3104 3104 3106 3107 3107 3107 3109
3103 3104 3104 3105 3105 3105 3106 3106 3107 3108 3109 3109 3110 3110 3110 3111 3111 3111 3111 3112 3112 3112 3112 3112 3112 3112 3112 3111 3111 3111 3111 3111 3111 3110 3110 3110 3110 3109 3108 3108 3108 3107 3107 3107 3106 3106 3106 3106 3105 3104 3103 3101 3101 3101 3100 3099 3099 3098 3097 3097 3095 3094 3093 3093 3092 3092 3092 3092 3093 3093 3095 3098 3099 3100 3101 3102 3102 3102 3102 3104 3105 3105 3106 3107 3108 3108 3109 3110
3101 3102 3103 3104 3104 3104 3104 3105 3105 3106 3107 3108 3108 3108 3109 3110 3110 3110 3111 3111 3111 3111 3111 3111 3111 3111 3111 3111 3111 3111 3111 3110 3110 3110 3109 3109 3109 3108 3108 3108 3107 3107 3107 3107 3106 3106 3106 3105 3105 3104 3104 3103 3102 3102 3100 3099 3100 3099 3098 3097 3096 3095 3094 3094 3093 3094 3094 3093 3094 3096 3096 3098 3100 3101 3101 3102 3103 3103 3104 3105 3106 3106 3107 3108 3109 3110 3111 3112
3100 3101 3102 3102 3103 3103 3103 3104 3104 3105 3105 3106 3107 3107 3108 3109 3110 3110 3110 3110 3110 3110 3110 3110 3110 3110 3110 3109 3110 3110 3110 3110 3109 3109 3109 3109 3108 3108 3108 3108 3107 3107 3107 3107 3106 3106 3106 3105 3104 3104 3104 3103 3102 3101 3100 3100 3099 3099 3099 3098 3097 3096 3095 3095 3094 3095 3095 3095 3095 3097 3098 3099 3100 3102 3103 3104 3104 3105 3105 3106 3107 3108 3108 3109 3110 3111 3113 3114
3098 3099 3100 3101 3101 3102 3102 3102 3103 3104 3104 3105 3105 3106 3107 3108 3109 3109 3109 3109 3109 3109 3109 3109 3109 3109 3108 3108 3108 3108 3109 3109 3108 3108 3108 3108 3107 3107 3107 3107 3107 3107 3107 3106 3105 3105 3105 3105 3104 3104 3104 3103 3102 3101 3100 3100 3100 3099 3099 3099 3098 3097 3096 3095 3095 3095 3096 3096 3096 3097 3098 3099 3101 3102 3104 3105 3106 3106 3107 3108 3108 3109 3110 3111 3112 3113 3115 3116
3096 3098 3098 3099 3100 3100 3101 3101 3102 3103 3103 3103 3104 3104 3105 3106 3107 3107 3107 3108 3108 3108 3108 3108 3108 3107 3107 3106 3107 3107 3107 3107 3108 3107 3107 3106 3106 3106 3106 3106 3106 3106 3106 3106 3105 3105 3105 3104 3103 3103 3103 3102 3101 3101 3100 3100 3100 3100 3099 3099 3098 3098 3097 3096 3096 3095 3096 3096 3097 3098 3098 3099 3101 3103 3104 3105 3107 3108 3108 3109 3110 3111 3112 3113 3114 3115 3116 3118
3095 3096 3097 3098 3098 3098 3099 3100 3100 3101 3102 3102 3103 3103 3104 3105 3106 3106 3106 3106 3107 3107 3107 3107 3107 3106 3106 3105 3106 3106 3106 3106 3106 3106 3106 3105 3105 3105 3105 3104 3104 3104 3105 3105 3104 3104 3104 3104 3103 3103 3102 3101 3101 3101 3100 3100 3100 3100 3099 3099 3099 3099 3098 3097 3097 3096 3097 3097 3098 3099 3099 3099 3101 3103 3104 3106 3107 3109 3110 3111 3111 3112 3114 3115 3116 3117 3118 3119
3093 3094 3095 3096 3097 3097 3098 3098 3099 3100 3100 3101 3101 3102 3103 3104 3104 3105 3105 3105 3105 3106 3106 3106 3105 3105 3105 3105 3105 3105 3104 3105 3105 3105 3104 3104 3104 3103 3103 3102 3102 3102 3103 3103 3103 3103 3103 3103 3103 3103 3102 3100 3100 3100 3100 3099 3099 3100 3100 3100 3099 3099 3099 3098 3098 3097 3097 3098 3099 3100 3100 3099 3100 3102 3104 3106 3108 3109 3110 3111 3113 3114 3115 3116 3117 3118 3119 3120
Wind_Speed
7 7 8 8 9 10 10 8 6 5 6 7 8 6 4 2 2 3 4 4 4 5 5 6 7 8 8 6 6 5 5 7 10 12 13 16 17 19 20 18 15 14 15 14 15 14 14 14 12 12 11 12 11 7 9 9 7 5 3 6 8 8 8 9 9 11 10 10 8 8 8 7 7 6 8 9 9 13 16 18 17 16 18 20 22 22 22 25
7 7 8 8 9 10 10 8 6 5 6 7 8 7 5 2 0 2 4 4 4 4 5 6 6 7 7 6 6 6 6 7 10 12 13 15 17 19 20 18 16 15 15 15 15 15 14 13 12 13 11 8 8 7 7 7 7 3 4 7 7 7 9 10 10 11 10 10 9 8 9 9 11 10 10 10 8 11 13 12 13 15 18 20 21 22 23 24
6 7 7 8 9 9 9 8 6 5 6 7 8 7 6 3 1 2 3 4 4 4 4 5 5 7 6 6 7 7 7 8 10 12 13 15 16 19 20 19 17 16 16 16 16 15 12 12 12 13 10 4 7 7 4 4 5 2 5 6 7 8 9 10 10 11 10 11 11 9 11 12 13 13 12 11 9 9 10 11 14 16 18 18 19 20 19 19
6 6 7 8 8 8 9 8 6 5 5 7 8 8 7 5 2 2 3 4 4 4 4 4 4 6 6 6 7 8 9 8 9 13 13 14 16 18 20 19 18 17 16 16 16 14 12 12 12 13 9 3 7 7 3 5 5 4 7 6 7 9 9 9 10 12 12 13 14 12 13 15 13 12 12 10 8 6 9 13 16 17 16 16 17 19 17 14
5 6 7 7 8 8 8 8 6 5 5 6 8 8 8 6 3 2 4 4 4 3 3 4 3 4 6 6 7 8 10 6 8 14 14 14 15 17 19 20 19 18 17 16 15 14 13 12 13 12 7 3 6 5 5 7 6 7 8 8 9 9 10 10 10 14 14 13 14 14 14 17 14 11 12 9 7 7 10 13 14 16 15 14 14 16 14 12
5 6 7 7 7 7 7 7 7 5 4 6 7 8 8 7 5 3 4 4 3 3 3 3 3 4 5 6 7 8 8 6 9 14 14 15 15 16 18 19 20 19 17 16 16 14 13 13 10 7 5 4 5 5 7 9 8 9 8 9 10 10 12 12 12 15 15 13 14 15 16 17 14 13 12 9 8 9 11 12 13 15 14 15 13 11 10 11
5 6 6 7 7 7 7 7 7 6 4 5 6 8 8 8 6 4 5 4 3 3 2 3 4 4 4 5 6 7 8 8 10 13 14 16 15 15 16 18 19 20 18 16 15 14 13 11 7 5 6 5 7 7 8 10 10 9 8 10 11 11 13 13 13 15 16 16 16 17 17 17 14 13 12 9 8 10 11 12 13 14 14 13 11 10 9 12
5 6 6 7 7 7 7 7 7 7 5 4 5 7 8 8 7 6 5 5 4 3 3 3 4 4 3 4 5 6 8 8 10 12 14 17 16 15 15 17 18 18 19 16 13 13 11 8 7 7 6 6 8 7 9 11 8 8 9 10 11 12 14 15 15 16 17 18 18 18 18 14 12 12 11 8 8 9 8 9 11 12 14 11 9 12 12 14
6 6 7 7 8 8 7 7 7 7 6 4 4 6 7 8 8 7 6 5 4 4 4 3 3 3 3 3 4 5 7 8 9 10 13 16 17 16 15 16 16 16 18 16 14 12 9 7 8 9 6 7 8 7 9 10 6 7 9 10 11 11 12 14 14 15 16 15 16 15 13 11 11 11 9 6 6 7 5 6 8 10 11 11 11 13 14 16
7 7 8 9 9 8 7 7 7 7 6 4 3 4 6 7 7 7 6 5 5 5 4 3 3 3 3 3 3 4 6 8 9 11 12 14 17 17 16 16 16 15 15 16 15 13 9 8 9 11 9 7 9 9 9 8 6 9 10 9 10 11 12 12 11 12 12 11 11 10 9 10 11 9 6 6 7 6 7 6 7 6 7 12 13 15 16 17
9 9 10 10 10 9 7 7 7 7 6 4 2 3 5 6 7 7 6 6 6 6 5 3 3 4 3 3 3 4 6 8 10 11 12 13 15 17 17 17 17 15 14 14 15 14 12 9 9 11 9 8 10 9 9 8 7 9 9 8 9 11 12 10 8 7 8 7 6 7 9 11 9 7 7 7 4 4 7 7 7 6 6 11 15 16 19 20
9 9 10 11 12 11 8 7 8 8 7 5 3 2 4 5 6 6 6 6 6 6 5 3 4 5 4 3 4 4 6 8 10 12 13 14 15 16 17 18 18 16 13 13 14 15 14 11 9 8 6 9 9 8 9 8 6 6 7 7 6 9 11 10 8 6 8 7 5 6 8 7 4 5 7 6 3 2 6 7 5 5 6 11 15 17 20 21
8 9 9 11 12 12 9 8 8 8 7 5 3 1 3 4 5 6 6 6 6 6 4 3 5 5 4 4 4 5 7 9 11 13 14 15 15 16 17 17 19 18 15 12 12 14 14 12 10 8 8 9 8 8 6 5 5 6 8 6 4 9 11 9 8 7 8 6 5 5 3 3 2 4 6 6 3 1 6 9 6 5 7 11 14 18 22 23
7 8 9 10 11 11 10 8 7 8 7 5 3 1 2 3 4 5 6 6 6 5 3 3 6 6 4 3 3 5 7 9 11 13 15 16 16 16 16 17 18 20 18 13 10 11 12 12 10 9 9 8 7 8 6 6 5 6 8 6 2 7 10 9 6 7 6 4 4 2 1 1 1 1 2 5 2 0 5 10 8 5 7 11 13 18 21 22
7 8 9 10 10 11 10 9 7 7 6 5 2 1 3 3 4 5 5 6 6 4 3 4 6 6 4 2 2 4 7 9 11 13 15 16 16 15 16 17 18 20 21 16 10 9 11 11 11 8 7 9 9 8 9 8 7 6 9 6 4 8 11 10 8 8 7 5 3 3 2 3 2 3 1 5 3 3 7 10 8 5 7 11 13 17 20 23
6 7 9 10 11 11 10 9 8 7 7 6 3 2 3 3 4 5 5 5 4 3 2 4 7 5 3 2 2 5 7 9 12 13 15 16 16 15 15 17 18 18 21 18 10 8 10 11 10 7 5 7 7 8 10 8 6 4 8 8 7 9 10 10 9 9 8 6 5 5 4 4 2 2 3 6 6 8 10 8 6 5 8 12 14 18 21 22
6 7 8 10 11 11 10 9 8 8 7 7 5 2 3 3 3 4 4 3 2 1 2 5 7 4 1 1 2 5 7 9 12 14 15 15 15 15 14 16 18 18 20 18 11 9 11 11 10 7 5 6 5 7 8 6 4 5 8 8 7 8 8 9 9 8 8 6 7 7 4 5 4 2 5 7 8 10 10 8 8 6 8 12 13 18 22 21
5 6 8 9 11 12 12 9 8 8 7 7 5 2 2 3 3 4 3 1 2 2 3 6 7 2 1 1 3 5 7 10 11 13 15 14 14 14 14 15 17 17 18 16 12 12 11 10 10 6 5 6 5 6 7 7 8 8 10 9 8 9 8 9 8 7 7 5 6 8 5 4 4 4 6 8 8 11 10 7 8 5 6 11 12 17 22 22
4 6 7 9 10 11 12 10 8 8 7 7 5 2 2 3 3 3 1 2 4 4 4 6 5 2 1 1 4 5 8 9 11 13 14 14 13 13 13 14 16 16 15 12 9 11 11 9 9 6 5 6 6 7 7 8 7 8 9 9 10 10 8 9 8 7 6 5 6 8 5 4 5 4 5 9 9 9 8 5 6 6 5 8 13 17 20 23
4 5 7 9 10 11 12 11 8 7 7 6 5 3 2 2 3 1 3 4 5 5 5 5 5 3 2 1 4 6 8 8 10 12 13 13 12 13 13 14 15 15 15 13 9 10 10 8 6 6 6 7 8 7 7 8 7 8 8 9 9 8 7 8 7 6 5 5 6 7 5 5 5 4 6 11 10 8 6 4 4 5 5 4 10 17 20 22
4 5 7 9 10 12 12 10 8 7 6 5 4 2 1 2 2 2 5 6 6 6 6 5 4 3 1 2 3 6 7 8 9 11 12 12 12 13 12 14 15 13 14 14 11 9 9 7 6 5 5 7 7 7 8 8 8 8 7 8 8 6 6 7 6 4 5 5 5 7 6 5 5 5 7 9 9 7 5 3 4 5 6 5 7 14 18 20
4 6 7 9 10 12 12 10 8 6 5 4 3 2 1 1 0 3 5 6 6 6 5 4 2 1 1 3 4 5 6 7 9 10 11 11 10 12 12 14 14 12 15 16 12 10 6 5 9 8 6 6 6 7 7 7 7 7 7 7 6 5 5 6 6 5 5 5 5 7 7 5 6 7 7 6 6 6 5 3 5 6 7 5 4 12 18 19
5 6 8 9 10 12 12 11 8 5 4 3 2 1 2 1 2 4 5 6 5 4 4 2 2 2 4 6 7 6 6 7 9 10 11 10 9 10 11 11 12 12 14 14 12 10 6 6 10 9 6 7 6 8 8 6 7 6 5 5 5 7 5 4 6 6 7 5 4 6 6 6 7 8 8 6 5 4 4 3 6 7 6 4 2 8 17 20
5 7 8 9 10 11 12 11 8 5 4 3 1 2 3 2 2 4 6 7 5 4 3 2 3 3 4 7 7 8 8 8 8 9 9 10 10 10 11 11 11 9 10 12 10 7 5 6 8 8 6 6 5 7 8 7 7 4 3 4 4 5 4 3 4 6 7 5 5 5 6 8 9 9 8 6 4 3 3 4 7 8 6 2 2 4 14 19
6 7 8 9 10 11 12 10 7 5 4 3 2 3 3 2 3 5 8 7 4 3 2 3 3 3 4 7 7 8 8 7 7 7 8 10 10 11 11 11 11 7 9 14 11 5 6 6 6 8 6 5 4 4 6 7 7 4 2 2 2 3 4 3 3 4 5 4 4 2 3 6 8 9 8 5 3 2 4 8 9 9 8 3 3 7 18 25
6 7 8 10 10 12 11 9 7 5 4 2 2 3 3 3 3 6 8 8 5 2 1 2 2 2 5 6 6 7 5 5 7 7 8 9 10 12 11 10 12 10 11 15 9 6 12 9 6 6 7 5 4 5 6 4 4 3 1 1 1 2 3 2 2 2 3 5 5 4 3 5 7 9 8 6 5 5 7 10 10 9 10 4 7 13 26 33
6 7 8 9 11 12 11 9 7 6 4 3 2 3 3 3 4 6 6 5 4 2 1 1 2 3 5 5 5 7 4 6 8 7 8 9 10 12 10 9 11 11 12 14 10 9 15 11 5 6 8 4 3 6 8 5 1 1 3 2 1 1 1 1 1 1 2 4 7 7 5 6 6 7 7 7 8 7 8 10 10 10 10 6 9 20 34 39
7 7 8 9 10 11 11 9 7 6 4 3 2 3 3 3 5 6 4 2 3 3 2 2 4 4 5 5 5 6 5 6 7 7 9 9 9 12 11 10 10 9 11 13 10 12 15 11 5 5 7 4 4 8 9 6 3 2 4 3 1 3 4 3 2 0 2 1 6 6 3 4 5 5 6 7 9 8 9 10 11 12 11 10 14 24 33 39
7 7 8 9 10 11 10 9 6 5 4 3 2 3 3 4 5 5 2 2 3 3 3 3 5 5 7 7 6 6 5 7 7 8 10 8 8 10 10 11 11 8 11 12 9 10 12 12 8 5 5 6 8 9 9 7 4 1 3 5 3 3 6 3 1 1 2 1 5 5 3 2 5 6 5 6 8 9 10 11 12 15 15 15 19 24 28 32
8 7 7 9 10 10 10 8 6 5 5 3 2 3 4 5 5 3 3 3 3 3 2 2 4 5 7 5 5 6 7 8 9 8 9 8 8 10 9 11 13 10 9 11 10 8 10 14 12 7 5 6 8 8 8 8 7 4 4 3 2 3 4 2 1 2 2 2 5 6 4 1 2 5 6 6 8 9 10 14 16 18 19 20 22 24 25 25
8 7 7 8 9 10 9 7 5 5 5 4 2 4 5 5 4 4 4 5 4 2 1 2 4 6 7 4 3 6 7 8 9 7 7 8 7 10 11 11 15 12 7 8 9 7 9 12 13 11 9 7 7 8 6 6 8 8 6 1 5 6 5 4 3 3 2 3 5 5 4 4 4 7 8 8 8 9 14 17 17 17 19 22 22 23 23 23
8 8 7 8 9 9 8 6 5 4 4 3 2 4 5 4 6 5 3 4 4 2 2 1 3 5 6 5 4 6 5 5 8 5 3 5 4 6 9 9 12 12 8 10 10 7 5 6 12 13 12 11 7 8 6 4 6 7 3 2 3 5 4 3 3 1 1 5 5 4 3 5 8 7 7 10 10 11 16 17 16 16 18 20 19 18 18 18
8 8 7 8 9 9 8 7 5 4 3 3 3 5 5 5 6 6 4 4 3 2 2 1 3 5 6 5 5 7 5 4 6 5 3 4 2 4 8 10 12 10 9 12 12 10 5 5 12 13 11 14 11 8 8 5 7 8 4 4 4 1 2 2 3 2 3 5 5 4 2 3 6 5 7 11 12 12 14 15 14 15 17 18 17 15 14 13
8 8 7 8 9 8 7 6 4 3 2 2 2 4 5 6 6 6 5 4 4 2 1 2 3 4 4 4 6 8 5 5 6 4 3 3 2 4 6 9 12 11 10 10 9 11 8 4 10 12 10 14 12 9 9 6 6 8 7 5 5 5 3 1 2 1 4 7 7 6 3 3 4 4 8 11 11 10 12 13 12 13 15 16 16 15 14 13
8 8 7 7 8 8 7 6 4 3 2 2 3 5 7 7 5 5 5 5 4 4 3 3 3 3 3 3 7 9 5 4 6 5 2 2 3 4 4 6 11 12 11 10 8 10 8 4 11 13 10 11 10 9 12 8 6 8 8 6 6 8 6 2 4 4 4 6 6 6 3 6 8 7 8 9 10 11 11 11 12 12 14 15 15 15 14 13
8 8 8 7 7 7 7 5 4 3 2 2 4 7 9 7 5 5 6 6 5 4 4 4 3 3 3 3 5 8 7 4 5 4 2 1 2 3 4 4 8 11 12 10 8 10 10 7 10 14 10 9 9 9 12 11 8 8 9 7 6 8 6 3 4 3 2 4 4 3 3 8 10 9 8 8 10 11 10 10 11 12 12 13 14 13 12 11
9 8 8 7 7 7 7 5 4 3 3 3 6 9 10 8 8 8 7 7 6 5 4 5 4 3 4 5 4 6 7 4 4 5 3 2 1 2 4 4 6 10 11 10 6 9 12 8 6 11 9 8 10 9 9 11 11 8 7 7 6 7 6 3 2 2 3 4 4 4 5 6 6 6 8 9 9 10 11 10 10 12 11 12 12 12 11 11
9 9 9 8 7 7 7 6 4 4 4 5 8 10 9 9 10 11 9 7 7 6 5 5 4 3 3 5 5 7 7 5 5 5 3 2 2 2 3 4 6 8 10 11 7 9 13 7 5 10 8 8 12 10 7 10 11 9 7 8 8 6 5 4 2 1 3 4 3 4 6 7 6 6 7 7 7 9 12 11 9 11 11 11 12 12 12 11
10 9 9 8 7 7 7 6 4 3 4 6 7 9 9 9 10 10 9 9 8 6 5 6 4 3 3 4 5 6 7 6 5 4 3 3 3 4 4 4 5 7 9 10 7 9 11 7 5 9 7 7 10 10 8 8 10 9 7 8 8 6 4 4 2 3 1 3 3 4 5 4 5 5 5 5 5 6 11 12 10 10 10 11 12 12 12 11
10 10 9 8 8 8 7 6 5 3 4 7 8 9 10 9 8 8 8 8 9 7 7 6 3 3 3 4 5 5 6 6 5 4 4 4 4 4 4 5 6 6 7 8 7 9 10 7 7 8 6 6 7 8 11 9 8 9 7 6 6 5 4 5 3 3 3 1 3 4 5 4 4 4 4 4 4 5 9 11 10 9 10 11 11 12 11 10
11 10 9 9 8 8 7 6 5 4 5 7 8 9 11 10 8 7 7 8 9 9 8 6 4 3 3 3 5 5 5 5 5 4 4 4 5 4 5 7 7 5 6 6 6 9 9 8 9 9 7 5 5 6 9 10 8 8 8 8 7 4 3 2 3 2 2 1 2 3 4 4 3 3 4 5 7 7 8 9 10 10 10 11 11 10 10 9
11 10 9 10 9 8 7 5 6 6 5 6 7 8 10 11 8 6 7 7 8 9 9 7 5 4 3 3 5 5 5 4 4 4 4 5 5 5 6 8 7 5 6 5 6 9 10 8 9 9 6 4 5 6 8 12 12 9 10 12 9 5 5 5 4 4 2 2 4 5 5 3 3 4 5 6 8 8 8 10 10 10 10 11 12 10 10 10
12 11 10 10 9 9 6 5 7 6 5 7 7 7 10 11 7 5 6 7 7 8 8 7 6 5 4 5 5 5 5 4 3 3 4 5 4 6 7 8 7 7 6 5 6 9 9 7 9 10 5 1 2 4 7 12 12 9 11 14 10 4 4 6 5 2 2 3 3 4 5 4 5 7 6 7 8 8 9 10 10 11 11 10 11 11 11 11
12 11 11 10 9 9 6 5 6 5 6 7 6 7 10 11 9 6 6 7 8 7 7 7 6 6 6 6 6 5 4 4 4 5 5 4 5 8 8 7 7 7 5 5 6 8 6 7 10 10 5 0 0 1 5 10 12 10 11 14 11 5 4 5 3 1 2 3 3 3 5 7 7 9 8 8 9 9 11 13 13 13 13 12 12 13 13 13
11 11 11 10 9 9 7 7 7 6 7 7 6 7 9 9 10 9 7 8 9 9 8 8 8 7 7 8 8 7 5 4 4 5 6 5 6 8 6 5 5 6 6 5 6 7 6 6 8 8 6 5 4 4 6 10 11 10 11 13 10 6 5 5 3 3 3 2 3 5 8 12 9 10 10 10 10 10 12 14 14 14 13 14 14 14 15 14
11 10 10 9 10 9 9 9 7 6 6 6 6 9 9 8 10 11 9 8 8 9 9 8 8 8 9 9 8 7 7 6 5 5 5 5 6 7 7 6 5 5 6 6 6 7 5 5 6 7 7 7 7 7 8 8 8 9 11 12 9 6 7 6 4 6 4 2 4 6 12 15 12 11 11 11 10 11 13 14 13 13 14 15 16 15 16 16
11 11 10 9 8 8 8 8 7 7 8 7 7 9 10 8 9 10 11 10 9 9 9 9 9 9 10 9 8 7 7 7 6 5 5 6 6 7 7 7 7 6 6 7 6 6 5 4 6 6 5 6 6 6 7 6 6 8 10 11 9 7 7 7 6 7 5 3 4 7 14 16 14 12 11 11 11 12 14 15 14 14 15 15 16 16 15 15
12 11 11 10 9 8 7 7 7 8 8 8 9 10 10 9 9 9 9 10 11 10 9 9 10 10 11 10 9 7 6 6 5 4 4 6 8 8 6 6 7 6 5 6 5 6 5 5 6 6 5 5 6 6 6 5 4 6 9 10 10 9 6 4 4 5 5 5 4 11 14 14 15 14 12 12 12 12 13 14 14 15 15 14 14 14 13 13
13 12 11 11 11 10 9 8 8 7 8 9 10 10 10 10 9 10 10 9 9 10 9 8 9 10 11 11 10 7 6 5 4 4 6 7 8 8 6 5 6 5 5 6 7 7 6 5 6 7 6 5 5 6 5 4 3 5 7 9 10 9 7 4 2 3 5 4 6 13 14 14 15 15 14 14 13 13 13 14 14 13 13 13 13 14 14 14
13 12 12 12 12 11 10 10 9 8 9 9 9 9 10 10 9 10 12 10 7 8 8 7 7 8 10 10 9 7 5 5 4 5 7 8 7 7 7 6 6 6 6 7 8 6 5 6 7 7 6 4 3 5 4 3 3 3 5 8 9 8 7 7 5 4 5 5 10 16 15 15 15 14 14 15 14 14 14 14 14 13 14 14 14 14 15 15
13 13 13 12 12 12 10 10 9 9 10 10 10 10 9 9 9 9 10 10 9 8 7 7 7 8 9 10 9 7 6 6 5 5 7 8 8 8 8 8 9 9 7 6 7 5 4 6 6 6 7 4 1 3 3 3 4 2 4 8 9 8 8 8 7 5 6 7 13 15 14 15 16 16 15 15 14 14 15 15 15 14 15 15 14 13 13 12
14 14 14 13 13 13 11 10 10 10 11 11 11 11 9 9 10 10 9 9 9 8 7 7 7 7 7 8 8 8 9 8 7 7 7 8 9 10 10 11 11 10 8 7 8 6 5 5 6 6 7 4 2 3 4 4 2 1 4 6 6 6 7 8 7 5 6 8 12 12 10 14 17 17 17 16 15 16 16 16 15 14 14 14 13 13 12 11
Wind_Direction
360 356 352 350 350 350 348 339 315 272 238 222 213 208 201 178 51 24 5 349 339 335 335 345 349 348 356 8 7 358 1 4 3 2 357 359 360 2 4 4 4 2 4 8 12 14 14 17 13 13 17 14 22 12 358 6 5 353 293 281 281 290 290 293 291 278 283 279 271 269 266 263 257 263 260 252 260 260 251 249 250 251 248 241 239 239 237 228
2 356 352 351 352 353 352 345 323 281 246 228 220 214 209 205 47 15 356 344 335 331 331 343 351 351 1 13 9 1 0 5 3 0 356 358 1 4 6 5 6 5 8 13 15 19 17 16 10 15 25 17 11 8 3 2 5 350 279 285 290 305 299 297 295 283 283 278 275 271 265 260 254 251 247 243 248 260 261 256 249 245 242 240 239 237 239 235
6 359 353 351 352 354 354 351 331 291 255 236 227 220 217 216 241 348 343 338 332 325 326 340 349 353 2 8 12 7 356 1 5 358 353 357 360 3 7 7 7 9 12 16 18 21 18 13 10 17 37 28 346 6 21 351 359 324 286 292 291 308 303 296 295 286 283 278 271 267 265 253 245 247 246 236 233 255 264 249 236 235 238 240 242 236 238 241
10 2 356 353 353 353 355 355 340 303 265 243 233 226 224 225 242 309 323 328 330 321 320 333 343 350 356 3 10 7 2 3 358 355 351 353 356 0 6 7 10 12 13 17 19 18 16 14 13 20 40 6 334 13 16 327 346 293 290 299 298 307 300 296 295 287 276 271 273 273 275 267 256 248 249 243 235 256 256 240 232 234 239 242 245 238 235 240
13 6 0 356 355 353 354 358 349 318 275 250 239 232 229 230 242 280 303 317 326 316 314 324 331 338 346 358 1 6 19 11 336 347 350 349 352 356 2 7 12 14 14 17 18 17 16 16 17 18 25 327 331 7 312 306 321 296 290 293 304 308 298 294 292 287 277 273 281 284 283 277 271 255 252 252 244 259 252 240 235 235 238 241 245 236 234 240
18 12 5 0 357 353 353 357 355 335 287 258 242 236 233 233 242 265 290 305 314 305 305 317 317 317 330 348 353 0 18 6 336 347 349 346 348 350 357 4 11 15 14 15 17 17 16 21 24 5 352 329 325 327 301 306 313 302 297 298 307 305 296 295 290 289 285 279 279 278 276 271 270 266 264 263 257 261 246 234 232 232 231 235 238 228 228 231
26 18 9 5 0 354 352 355 356 347 307 267 246 238 235 235 242 257 281 297 298 288 298 314 309 300 309 329 343 352 359 355 350 355 354 350 347 346 352 358 7 15 13 14 16 15 18 23 19 348 353 334 314 317 312 314 308 294 296 300 305 304 301 299 289 286 283 278 275 272 271 267 271 273 269 273 271 256 236 230 230 228 223 224 223 209 209 214
35 23 15 11 4 356 353 353 355 353 330 284 253 241 237 235 240 251 272 289 289 280 290 307 301 290 290 307 331 344 345 347 352 358 2 1 354 347 347 350 2 11 14 15 12 13 22 12 358 4 358 309 309 321 316 322 310 284 296 306 313 316 312 308 296 285 280 278 275 271 268 268 270 268 269 277 269 246 228 232 228 221 218 211 201 195 198 204
43 31 21 16 9 2 357 356 356 355 343 311 264 243 239 236 236 245 261 279 287 286 293 301 292 278 270 291 322 337 335 339 347 353 1 6 5 359 350 346 353 4 12 14 10 14 18 356 354 3 341 304 317 320 319 330 317 294 309 317 321 321 315 312 300 288 284 280 277 271 270 273 267 265 272 259 230 214 193 210 209 205 207 195 187 190 192 199
51 39 28 22 16 11 8 4 360 357 350 331 283 245 240 237 235 240 252 268 282 292 300 294 269 255 250 266 293 316 327 335 341 344 349 358 6 8 1 351 348 355 4 8 8 13 10 355 354 359 355 332 326 322 320 319 305 314 326 335 339 333 324 316 301 296 293 282 275 270 269 269 264 264 261 224 205 182 161 170 172 170 186 184 181 185 187 193
55 44 35 29 24 21 21 15 5 0 354 347 318 252 243 241 238 239 248 262 277 295 303 284 247 232 228 249 270 299 327 338 340 342 343 343 352 4 6 1 352 348 352 357 1 5 5 358 353 6 2 329 329 325 313 310 317 326 337 2 0 338 330 326 322 318 300 283 271 273 271 262 256 243 226 223 213 168 173 172 152 143 168 184 181 181 184 189
55 44 36 32 29 27 27 20 11 7 2 360 353 277 251 245 241 241 248 259 275 296 300 267 223 215 221 249 280 312 333 339 340 343 344 340 340 350 359 4 2 352 343 344 349 353 357 355 352 4 340 318 330 319 300 312 337 348 349 4 353 334 333 326 330 315 285 281 267 277 272 251 233 211 206 211 200 170 192 186 164 159 168 184 186 186 185 187
52 39 30 30 29 27 26 21 15 12 9 9 8 317 265 250 245 247 250 258 276 295 297 241 205 207 219 249 290 331 339 339 342 345 345 343 339 341 349 358 4 2 349 338 339 343 348 349 346 346 335 332 324 306 303 323 356 12 344 332 332 342 347 339 329 303 287 283 265 273 260 200 173 199 202 193 180 183 196 194 195 191 180 180 189 193 188 187
49 36 25 24 25 24 22 18 14 12 10 12 14 326 272 255 246 250 254 262 278 293 287 222 198 199 214 250 310 342 345 343 345 349 349 348 342 339 342 348 356 3 359 344 331 336 342 340 343 345 340 340 324 315 333 335 341 346 317 307 337 340 347 356 344 312 304 282 257 256 204 224 311 275 188 162 166 37 186 196 196 180 177 179 186 193 190 187
48 35 23 20 20 19 17 12 9 5 2 2 6 304 268 254 249 258 264 270 284 291 265 205 192 195 214 255 326 343 350 351 348 350 352 351 348 340 339 343 346 355 359 353 336 331 334 332 340 344 328 333 338 332 329 309 292 307 316 333 10 346 343 350 348 342 340 314 310 51 23 316 356 356 86 129 120 121 156 179 180 151 162 172 175 182 185 186
44 32 22 17 15 14 10 6 2 357 353 349 347 302 273 266 264 272 275 283 290 277 229 193 190 194 208 241 327 345 351 353 350 349 350 352 351 344 340 342 343 346 351 352 345 333 333 330 332 334 325 333 334 318 310 293 270 298 328 340 358 353 344 344 350 358 358 343 356 29 356 322 349 17 89 119 123 138 150 154 144 137 158 167 174 178 180 180
36 27 19 14 12 9 6 1 356 352 349 344 346 328 293 289 287 288 290 298 280 219 175 166 169 168 173 233 331 347 351 353 351 348 349 352 351 347 344 344 343 342 344 347 351 350 345 337 337 344 338 328 320 308 306 315 327 330 334 338 349 352 345 346 353 357 360 3 1 5 350 329 347 74 103 116 132 135 129 117 117 133 157 162 178 179 172 170
27 17 12 11 9 6 3 358 350 349 348 344 348 348 307 301 304 307 312 292 191 159 131 155 159 146 85 31 350 348 351 351 350 348 350 352 352 351 349 348 348 348 352 355 356 355 350 341 343 346 320 309 312 305 304 329 340 327 329 334 336 342 348 349 350 347 354 13 5 360 355 343 9 89 106 108 123 123 114 111 117 125 147 156 172 172 169 174
15 8 5 6 5 4 3 357 347 347 348 345 346 346 317 313 320 320 359 138 172 157 132 158 163 150 145 24 350 347 351 351 350 350 351 352 353 354 354 355 358 1 5 4 351 346 346 339 336 328 309 299 294 289 289 309 317 312 318 322 325 334 345 349 349 346 358 20 5 1 4 1 26 55 90 103 113 115 118 133 127 116 114 147 168 166 172 178
354 357 359 1 1 1 1 358 347 344 348 347 340 329 330 336 322 292 127 122 148 152 144 154 153 151 175 318 349 349 350 354 354 351 351 354 354 355 358 358 3 10 7 359 349 348 354 350 330 308 298 287 284 287 284 290 300 305 309 309 316 326 339 350 353 349 15 38 5 7 31 35 39 31 57 95 115 123 131 150 138 122 86 105 165 166 174 178
332 344 353 356 357 357 360 360 350 342 348 348 336 318 338 355 309 180 133 125 133 139 140 140 140 146 157 337 354 353 353 355 354 352 352 353 354 355 357 357 2 6 359 359 359 356 5 6 350 339 315 296 293 299 294 294 298 299 302 304 312 330 340 349 356 354 19 32 13 31 59 57 48 45 52 81 113 128 128 124 112 126 102 87 158 171 177 179
318 333 346 351 352 354 358 359 351 342 345 347 337 299 296 351 217 168 148 144 141 142 146 140 149 181 349 335 335 340 348 351 348 352 350 350 356 352 350 356 358 350 353 3 357 343 353 352 351 3 359 336 322 315 309 303 296 287 290 298 317 344 337 340 356 7 10 4 14 45 70 79 63 61 58 75 107 115 120 87 74 121 126 96 148 178 182 183
313 325 337 346 348 350 355 356 351 343 342 345 331 234 235 272 204 192 179 164 157 164 170 167 250 268 302 313 318 319 329 339 338 344 345 345 352 349 347 351 345 339 351 358 345 339 349 338 344 357 5 1 344 332 332 314 293 281 285 299 332 353 348 342 353 8 16 18 52 63 77 85 73 64 55 66 92 112 141 86 63 105 119 88 95 180 187 191
307 318 328 338 343 349 353 351 348 341 334 330 299 203 208 220 197 197 185 169 164 184 201 264 269 257 298 309 310 314 320 323 324 334 340 343 347 347 349 349 344 335 336 345 345 344 336 322 338 353 7 13 350 333 333 309 291 284 290 311 336 348 343 327 344 18 27 35 73 84 85 69 64 63 54 63 90 135 150 71 69 81 85 76 47 164 179 177
300 312 320 330 340 348 349 346 345 339 328 318 275 211 205 195 183 189 176 158 150 169 210 298 275 250 315 316 311 326 327 314 318 324 332 345 348 346 345 349 354 334 319 339 347 338 330 318 329 347 359 10 1 335 321 298 299 320 325 315 341 337 325 313 330 22 39 47 69 92 99 71 64 59 54 62 77 91 71 67 76 82 99 97 29 151 161 147
293 305 313 325 337 346 346 344 341 337 333 316 272 229 207 183 177 183 168 157 162 159 117 334 299 294 334 325 326 350 342 313 322 317 320 340 347 349 347 345 350 341 333 340 329 327 348 338 312 335 350 5 22 359 344 322 310 336 340 300 354 333 309 308 324 8 49 62 55 31 56 91 79 55 54 71 67 57 60 73 84 94 116 85 29 141 150 135
285 300 310 323 334 341 345 345 337 333 332 317 276 230 205 180 173 175 170 170 179 174 155 348 343 347 347 339 347 2 336 301 316 314 321 333 341 351 350 342 339 336 344 347 331 340 357 351 321 319 327 342 44 8 7 29 54 2 358 350 347 292 265 219 264 3 35 66 66 54 66 97 87 54 61 81 77 66 55 68 89 99 113 88 68 131 142 133
277 294 307 320 329 337 345 344 333 325 321 312 264 218 192 181 180 171 175 183 143 165 217 315 339 344 360 2 354 350 324 310 319 320 327 332 341 351 351 349 346 339 352 355 335 338 357 6 352 312 315 339 20 8 13 42 72 18 15 39 145 192 165 171 221 259 306 38 78 64 67 102 91 77 83 82 73 70 65 71 95 106 113 115 107 126 138 136
270 290 304 316 325 333 341 341 329 319 314 305 250 214 188 188 191 174 210 248 150 182 243 335 338 339 4 3 351 349 337 328 326 319 325 334 345 351 352 355 0 11 16 12 352 338 354 10 9 345 339 341 345 1 17 26 30 16 36 59 86 152 153 158 205 209 265 50 70 38 2 84 98 92 89 85 72 67 79 94 109 115 119 127 124 124 133 137
265 284 299 312 322 330 338 338 323 313 308 296 243 209 191 186 194 194 224 216 163 189 251 350 341 349 6 353 330 340 336 326 324 322 331 340 345 352 360 360 3 12 12 9 5 355 4 19 23 17 3 338 329 351 13 8 8 39 64 76 144 157 168 196 214 232 240 89 60 30 9 352 109 86 60 72 81 75 94 112 119 120 124 131 131 130 135 140
261 279 295 308 319 327 335 336 320 311 307 295 242 201 187 185 212 233 225 198 189 228 266 343 345 354 7 7 335 334 329 324 332 339 342 341 343 358 6 2 356 352 349 359 356 353 14 25 25 20 18 7 332 321 341 1 6 25 52 155 205 176 185 209 199 230 234 84 60 34 19 18 58 66 61 80 95 94 108 119 119 120 128 134 135 136 141 144
259 273 290 304 317 326 330 332 319 305 311 302 245 189 179 202 231 236 214 195 215 237 216 290 350 355 2 18 2 338 332 329 340 345 346 348 343 354 4 7 359 350 354 4 354 352 12 6 6 15 17 11 348 312 325 11 357 345 358 309 249 179 173 189 168 180 66 65 48 17 10 55 73 72 83 107 115 110 117 123 121 124 133 139 141 142 145 145
256 269 287 301 315 325 327 330 317 299 314 303 236 180 187 236 235 214 192 189 202 186 190 261 354 4 3 11 353 343 336 328 345 348 341 357 358 342 350 1 9 5 347 346 350 358 360 342 1 12 7 3 3 343 343 5 353 345 360 351 330 145 138 125 108 98 89 77 49 19 360 66 77 77 85 102 114 114 120 127 125 127 135 141 147 149 149 150
252 266 283 296 312 323 327 328 312 291 307 288 221 179 206 241 234 210 201 208 220 216 254 337 352 351 358 7 358 360 349 319 341 357 336 344 358 357 350 350 6 10 344 336 352 358 350 349 3 4 0 2 2 356 355 354 357 15 32 12 12 35 29 70 87 61 100 97 62 31 28 36 39 74 88 99 117 115 119 132 133 133 136 141 147 149 152 154
250 263 277 291 307 319 324 324 308 286 283 258 213 204 224 239 234 215 208 217 234 242 293 332 333 316 322 359 358 3 5 324 334 346 333 342 351 357 1 350 360 8 357 346 351 351 346 344 352 353 4 10 4 8 14 9 3 25 31 14 31 43 30 56 77 56 86 101 68 33 68 91 74 84 98 106 120 119 123 133 138 142 143 144 146 147 152 154
248 260 271 284 300 313 318 315 302 277 250 224 217 225 237 241 227 212 213 222 230 238 271 293 306 305 318 346 353 354 356 340 334 332 304 329 348 360 9 355 360 12 8 354 346 352 350 337 346 357 6 8 1 6 18 17 4 9 23 28 44 54 55 91 102 94 104 103 81 51 117 112 88 81 87 96 102 110 127 136 141 149 149 149 150 148 149 150
244 256 266 278 294 307 312 309 300 273 235 213 227 236 244 244 232 221 218 227 235 243 260 274 294 311 327 342 352 353 349 339 338 331 307 315 302 4 16 3 3 11 9 2 351 346 342 319 337 2 359 358 5 8 14 19 18 19 30 35 38 47 45 38 85 124 121 92 71 65 86 93 89 82 83 96 106 115 131 142 150 155 154 154 156 154 152 149
240 250 260 273 288 297 304 309 299 263 230 226 239 246 245 239 238 231 222 230 239 245 254 265 291 311 328 339 346 355 353 345 338 328 321 329 281 290 352 351 357 359 0 6 357 340 343 328 341 1 353 2 16 18 12 12 20 31 38 35 37 45 30 11 13 59 102 107 95 96 89 65 66 78 75 96 122 131 138 143 146 149 152 159 162 162 158 150
240 250 261 270 280 290 299 303 296 263 232 235 245 253 247 235 240 238 228 232 235 240 251 250 264 294 316 341 345 353 359 356 350 335 325 330 311 318 328 317 340 344 347 360 353 341 346 335 341 357 355 11 17 12 11 6 4 15 34 42 44 48 37 29 7 335 15 126 136 140 125 69 67 84 80 100 118 129 144 149 146 145 150 155 159 160 157 151
237 248 260 267 275 287 294 293 290 265 236 238 236 242 243 235 238 242 233 229 229 231 240 236 241 284 304 344 348 349 360 357 354 348 334 329 328 334 331 321 328 329 334 350 348 345 343 324 328 341 340 14 25 10 11 7 351 360 20 33 31 36 50 55 47 342 332 140 148 142 126 87 73 84 85 113 136 141 147 152 152 151 150 149 153 159 158 153
233 246 257 264 271 283 290 291 283 256 239 243 238 235 238 234 235 241 234 228 227 224 225 226 238 268 282 335 340 342 360 356 348 353 343 339 341 333 322 326 331 331 341 351 340 341 341 320 318 323 327 5 26 1 4 9 5 5 14 19 12 356 356 35 82 60 3 38 111 138 123 92 80 98 101 135 159 160 154 156 155 152 148 146 150 157 156 154
230 241 253 261 268 280 287 281 273 264 242 239 238 232 232 233 234 233 223 215 214 216 221 230 243 258 276 313 326 340 1 354 343 352 340 335 341 327 319 332 350 358 352 346 327 336 344 329 315 317 320 347 353 346 3 15 19 19 16 15 11 353 341 355 43 72 74 94 114 127 118 85 93 118 119 137 150 156 163 167 163 157 157 156 154 152 151 151
229 236 249 257 264 278 280 263 267 269 246 234 233 230 231 231 228 225 222 211 205 212 222 232 243 254 276 303 318 336 350 347 346 348 335 331 329 320 325 340 360 6 351 336 332 339 349 344 325 322 315 278 355 12 29 21 17 20 14 10 11 13 7 12 29 59 98 110 144 157 129 108 123 130 127 133 136 137 147 155 156 157 161 162 154 147 146 148
230 235 245 251 258 270 264 244 249 250 242 240 233 233 237 235 228 221 218 214 209 212 219 229 244 255 272 295 307 317 330 340 339 327 324 323 307 310 323 338 353 5 357 336 338 344 348 344 335 331 328 190 162 56 42 15 6 11 12 8 14 32 35 35 48 56 91 89 306 305 106 113 129 132 123 124 126 124 129 137 142 144 144 144 145 144 145 149
231 237 244 247 254 261 254 241 235 229 240 244 230 229 235 238 237 225 212 218 220 217 222 233 245 257 274 291 298 304 314 322 318 315 319 316 298 298 307 316 332 346 338 328 342 350 343 338 343 342 337 344 356 360 360 354 352 1 10 10 20 47 44 31 32 20 54 107 339 9 106 122 125 120 112 111 120 125 125 127 133 136 131 131 136 139 141 144
229 237 244 247 251 256 256 254 244 231 237 237 228 231 229 232 242 234 223 224 222 221 230 238 246 262 277 286 290 293 301 309 309 304 305 305 298 291 284 282 292 309 316 323 342 349 337 329 346 348 338 345 354 344 337 343 348 357 8 12 19 37 33 21 18 22 36 93 34 64 123 130 122 116 113 113 120 124 120 119 126 132 129 128 131 133 136 139
227 232 238 244 250 253 254 255 247 236 236 230 226 233 229 228 240 244 241 239 232 232 242 248 252 264 273 277 281 282 287 304 308 298 295 298 300 298 291 283 275 282 313 324 326 333 325 311 327 335 333 341 345 337 339 353 2 2 7 13 13 10 19 29 35 32 24 13 53 111 133 130 125 125 121 121 128 126 122 121 123 126 127 129 131 132 135 137
226 230 232 235 240 244 247 250 246 240 237 235 234 234 231 231 236 241 245 247 248 248 251 256 258 260 265 270 277 280 286 297 298 294 301 307 308 305 304 294 276 275 314 324 308 314 317 305 315 326 323 327 339 350 356 358 2 8 9 11 13 10 15 30 28 29 26 22 101 140 138 129 131 134 127 127 130 128 127 126 124 125 126 129 131 132 135 137
226 229 232 234 238 244 249 253 251 244 238 238 241 239 233 232 234 237 238 243 252 252 251 258 262 263 270 275 277 278 282 287 293 301 302 305 309 306 304 299 279 275 305 304 290 298 305 294 305 321 315 308 327 346 360 4 352 2 8 9 15 22 27 30 18 27 32 44 127 146 142 136 138 138 133 130 130 129 129 127 124 124 125 127 130 131 132 131
225 228 230 235 242 248 252 255 252 244 240 240 241 241 236 231 232 239 238 235 240 251 253 255 261 268 274 277 277 278 278 282 300 311 307 309 314 310 303 289 268 275 296 291 283 291 303 293 302 318 307 286 314 333 338 347 323 327 9 15 20 28 34 41 47 51 50 83 134 146 147 142 142 144 140 136 136 134 132 131 130 129 129 129 130 130 127 124
224 226 228 234 245 250 253 257 252 241 239 241 239 239 238 232 229 233 237 236 236 248 259 259 264 272 278 282 282 276 271 280 291 296 300 306 304 297 292 280 272 279 288 282 275 278 297 299 302 313 303 289 329 325 304 303 307 326 11 13 21 27 32 39 44 58 76 115 143 150 154 152 150 152 149 143 143 141 137 135 134 134 134 132 132 133 130 129
224 225 226 232 244 251 253 259 257 244 240 240 236 234 232 231 231 231 237 245 245 248 258 263 268 276 281 282 275 265 267 275 280 284 291 298 299 295 290 283 278 273 267 266 270 266 273 291 295 301 300 294 318 325 304 279 256 51 3 358 25 38 38 40 35 51 85 124 149 154 168 171 162 158 154 148 146 145 141 139 139 141 142 138 137 138 139 142